{"data":{"norad_id":62740,"epoch":"2026-09-21T07:55:56.344800Z","epoch_age_seconds":99503,"freshness":"FRESH","line1":"1 62740U 25014F   26264.33051325  .00018777  00000+0  68967-3 0  9991","line2":"2 62740  43.0020 129.9017 0001105 279.4823  80.5903 15.27601581 93172","mean_motion":15.27601581,"eccentricity":0.0001105,"inclination_deg":43.002,"raan_deg":129.9017,"arg_perigee_deg":279.4823,"mean_anomaly_deg":80.5903,"bstar":0.00068967,"rev_number":9317,"period_min":94.265416971966,"perigee_km":482.22632159966,"apogee_km":483.74262944575,"semimajor_km":6861.1214755227,"source":"CELESTRAK","updated_at":"2026-09-22T09:00:49.656772Z"}}